Voltar ao catálogo

FREGAT DEB

AtivoLEO
NORAD 45648·DEBRIS·🇷🇺 Russia

Lançado Jul 18, 2011 de Baikonur Cosmodrome

Loading…

Próximas Passagens (próximas 24 horas)

TLE

AtualizadoSource: Space-Track

Época: Sep 14, 2026, 06:35 UTC

1 45648U 11037AQ  26257.27464405  .00105678  00000-0  38852-2 0  9998
2 45648  51.3911 219.4093 0766576 304.1416  48.9066 14.01069473282610

Acompanhe FREGAT DEB em tempo real com AllMySat

Download on the App Store